STARLINK-11308, 61246

Orbit data source: Space-Track

STARLINK-11308, 61246 is a payload satellite owned by SpaceX/Seattle (US) in LEO that was launched on Wed, 25 Sep 2024 UTC via an FALCON 9 launch vehicle from the Air Force Western Test Range (AFWTR). Payload-class satellites include a variety of spacecraft equipped with specific instruments for various scientific and technological missions. These include communications satellites like Starlink; space stations such as the ISS; scientific satellites like the Hubble; Earth observation satellites from companies like Planet Labs, Umbra, and HawkEye 360; GPS; miniature CubeSats for education and research; and military/defense satellites.

Loading next visibility...
Identifier
61246, 2024-175D
Orbit
LEO
Last TLE update
6 hours ago
Origin
Manufacturer
SpaceX/Seattle
Mission
Operational Commercial Communications
Bus & Motor
STARLINK V2M, Unknown motor
Mass
730 kg wet, ~700 kg dry
Launch date (UTC)
2024-09-25 (10 months ago)
Launch vehicle
FALCON 9
Launch site
Air Force Western Test Range (AFWTR)
Object type
Payload
Rocket body
Debris
Shape & HBR
Box + 2 Pan, 29 m
Radar Cross Section
36.964 m², Large (>1 m²)

Expand to show TLE details & history

TLE from 6 hours ago
0 STARLINK-11308
1 61246U 24175D   25192.22979700  .00000053  00000-0  52979-5 0  9998
2 61246  53.1595 166.4920 0001091  77.6632 282.4508 15.69704572 46330
Epoch: 2025-07-11T05:30Z
TLE epoch observation values (Epoch: 2025-07-11T05:30:54.46Z)
Latitude
-0.00004°
Longitude
154.38034°
Altitude
360.499 km
Speed
7.694 km/s
True Right ascension
11h 05m 58s
True Declination
0° 00' 00"
Sunlit
Object was in daylight at epoch
Visualization orbit readout
Latitude
-27.61198°
Longitude
130.22101°
Altitude
368.271 km
Speed
7.688 km/s
Apparent Right ascension
10h 30m 58s
Apparent Declination
-34° 37' 09"
Sunlit
Object is in daylight
Visualization observer readout
Local Sidereal Time
23:46:43
Azimuth
76.576° E
Elevation
-74.064°
Doppler factor
1
Orbital elements
Apogee altitude
360.738 km
Perigee altitude
359.268 km
Semi-major axis
6,738.14 km
Eccentricity
0.00011
Inclination
53.1595°
RAAN
166.492°
Arg. of periapsis
77.6632°
True anomaly
Unknown
Mean anomaly
282.4508°
Eccentric anomaly
Unknown
Mean motion
3.92404 °/min
Orbital period
91.74 mins
BSTAR
0.0000052979
Loading maneuver chart data...
Loading SW <> Apogee altitude chart data...
Loading historical data...
Loading historical data...
Loading historical data...
Loading historical data...
Loading historical data...
Loading historical data...
Loading historical data...

STARLINK-11308 Visibility forecast

Observer location: undefined°, undefined°

Span
Click to sort rows by Start time (UTC) header in descending order
Start Az.
Max El. time (UTC)
Max El. Az.
Max El.
End time (UTC)
End Az.
4 mins2025-07-12 08:00:40.533Z296.727° NW2025-07-12 08:02:40.533Z184.898° SSW38.726°2025-07-12 08:04:40.533Z144.27° SSE
|